Regional Weather Roundup
Issued by NWS

Home | Current Version | Previous Version | Graphics & Text | Print | Product List | Glossary On
Versions: 1 2 3 4 5 6 7 8 9 10 11 12 13 14 15 16 17 18 19 20 21 22 23 24 25 26 27 28 29 30 31 32 33 34 35 36 37 38 39 40 41 42 43 44 45 46 47 48 49 50
000
ASUS43 KTOP 011108
RWRKS

WEATHER ROUNDUP FOR KANSAS
NATIONAL WEATHER SERVICE GOODLAND KS
600 AM CDT WED JUL 01 2015

NOTE:  "FAIR" INDICATES FEW OR NO CLOUDS BELOW 12,000 FEET WITH NO
SIGNIFICANT WEATHER AND/OR OBSTRUCTIONS TO VISIBILITY.

KSZ001>006-013>018-027>032-041>047-011200-
NORTHWEST KANSAS

CITY           SKY/WX    TMP DP  RH WIND       PRES   REMARKS
GOODLAND       MOCLDY    70  55  59 W13       29.93R
HAYS           MOCLDY    79  54  41 SW20      29.78F
HILL CITY      MOCLDY    77  53  43 W6        29.79F
RUSSELL        CLOUDY    76  58  53 VRB6      29.79R
$$

KSZ061>065-074>080-084>089-011200-
SOUTHWEST KANSAS

CITY           SKY/WX    TMP DP  RH WIND       PRES   REMARKS
DODGE CITY     PTCLDY    73  54  51 SW13      29.90S
ELKHART          N/A     71  51  49 SW10        N/A
GARDEN CITY    PTCLDY    69  55  60 SW7       29.90F
GREAT BEND     PTCLDY    73  59  60 SW12      29.83R
LIBERAL        PTCLDY    68  54  60 S14       29.95F
PRATT          MOCLDY    72  59  64 SW13      29.87S
$$

KSZ066>073-081>083-090>101-011200-
SOUTHEAST KANSAS

CITY           SKY/WX    TMP DP  RH WIND       PRES   REMARKS
CHANUTE        PTCLDY    78  70  76 SW8       29.85R
COFFEYVILLE    PTCLDY    77  72  84 S8        29.87R
HUTCHINSON     PTCLDY    78  61  55 SW10      29.83S
MEDICINE LODGE   N/A     72  63  73 SW5       29.86F
NEWTON         MOCLDY    75  59  57 SW13      29.85S
PARSONS        PTCLDY    78  73  84 S6        29.87R
WICHITA INTL   MOCLDY    73  63  70 S9        29.85R
WICHITA JABRA  PTCLDY    77  63  61 SW15      29.84S
WICHITA MCCONL PTCLDY    75  64  67 S12       29.85F
WINFIELD       CLEAR     76  67  73 SW14      29.88R
$$

KSZ007>012-019>026-033>040-048>060-102>105-011200-
NORTHEAST KANSAS

CITY           SKY/WX    TMP DP  RH WIND       PRES   REMARKS
CONCORDIA      MOCLDY    72  66  81 SE9       29.78F
EMPORIA        CLOUDY    80  64  58 VRB3      29.86R
LAWRENCE       CLOUDY    69  67  93 E14       29.89S FOG
MANHATTAN      CLOUDY    74  68  81 E5        29.82S
MARYSVILLE     CLOUDY    68  64  88 SE13G21   29.81S
OLATHE IND     LGT RAIN  68  66  93 E12       29.91F
OLATHE EXE     LGT RAIN  67  67 100 E9        29.91S FOG
SALINA         MOCLDY    82  61  48 VRB3      29.81R
TOPEKA BILLARD CLOUDY    70  68  93 E16G23    29.86F
TOPEKA FORBES  CLOUDY    72  67  84 E13       29.86F
$$



USA.gov is the U.S. government's official web portal to all federal, state and local government web resources and services.